This demonstration page uses our WeatherBlox Daily Observations layout. Learn more.

Left ArrowRight Arrow

39.01783, -85.05884

Hourly Observations for May 16, 2018

Temp ( °F °C ) Dew Point ( °F °C ) Humidity (%) Winds ( mph kmh ) Pressure ( in mb ) Visibility ( mi km ) Precip ( " mm )
12:52 am 00:52 Cloudy 71 21.7 65 18.3 81 81 ENE 14 22 29.92 1013 10 16 0.00 0.00
1:52 am 01:52 Cloudy 71 21.7 65 18.3 81 81 E 8 13 29.91 1013 10 16 0.00 0.00
2:52 am 02:52 Mostly Cloudy 70 21.1 65 18.3 84 84 ENE 10 17 29.88 1012 10 16 0.00 0.03
3:52 am 03:52 Mostly Cloudy 69 20.6 65 18.3 87 87 E 7 11 29.88 1012 8 13 0.00 0.00
4:13 am 04:13 Mostly Cloudy 68 20 65 18.3 90 90 ESE 5 7 29.88 1012 7 11 0.00 0.00
4:52 am 04:52 Mostly Cloudy 68 20 65 18.3 90 90 E 7 11 29.88 1012 8 13 0.00 0.00
5:12 am 05:12 Partly Cloudy 68 20 65 18.3 90 90 E 5 7 29.88 1012 8 13 0.00 0.00
5:52 am 05:52 Mostly Cloudy 68 20 65 18.3 90 90 NE 5 7 29.88 1012 9 14 0.00 0.00
6:43 am 06:43 Mostly Cloudy with Mist and Fog 69 20.6 65 18.3 87 87 NE 6 9 29.91 1013 5 8 0.00 0.00
6:52 am 06:52 Cloudy with Mist and Fog 69 20.6 65 18.3 87 87 NE 7 11 29.89 1012 5 8 0.00 0.00
7:52 am 07:52 Cloudy with Mist and Fog 69 20.6 65 18.3 87 87 ENE 7 11 29.92 1013 4 6 0.00 0.00
8:11 am 08:11 Mostly Cloudy with Mist and Fog 69 20.6 65 18.3 87 87 E 6 9 29.91 1013 5 8 0.00 0.00
8:52 am 08:52 Mostly Cloudy with Mist and Fog 70 21.1 65 18.3 84 84 E 6 9 29.92 1013 5 8 0.00 0.00
9:52 am 09:52 Mostly Cloudy 72 22.2 65 18.3 79 79 ESE 7 11 29.92 1013 8 13 0.00 0.00
10:33 am 10:33 Mostly Cloudy 74 23.3 65 18.3 74 74 SE 7 11 29.91 1013 10 16 0.00 0.00
10:52 am 10:52 Cloudy 74 23.3 65 18.3 74 74 SE 8 13 29.92 1013 10 16 0.00 0.00
11:52 am 11:52 Cloudy 75 23.9 65 18.3 71 71 W 5 7 29.93 1014 10 16 0.00 0.00
12:22 pm 12:22 Cloudy 75 23.9 64 17.8 69 69 NNW 5 7 29.94 1014 10 16 0.00 0.00
12:52 pm 12:52 Cloudy with Light Rain 74 23.3 65 18.3 74 74 W 5 7 29.93 1014 8 13 0.00 0.03
1:03 pm 13:03 Cloudy with Thunderstorms 72 22.2 66 18.9 82 82 S 10 17 29.94 1014 2 2 0.00 0.03
1:09 pm 13:09 Cloudy with Strong Thunderstorms 70 21.1 66 18.9 87 87 SE 14 22 29.94 1014 1 1 0.00 0.03
1:26 pm 13:26 Cloudy with Thunderstorms 69 20.6 65 18.3 87 87 E 8 13 29.91 1013 3 5 0.15 3.81
1:36 pm 13:36 Cloudy with Light Rain 70 21.1 66 18.9 87 87 ENE 6 9 29.91 1013 6 10 0.17 4.32
1:46 pm 13:46 Cloudy with Nearby Thunderstorms 72 22 66 19 83 83 ENE 5 7 29.91 1013 8 13 0.18 4.57
1:52 pm 13:52 Cloudy with Nearby Thunderstorms 72 22.2 66 18.9 82 82 ENE 5 7 29.91 1013 8 13 0.18 4.57
2:09 pm 14:09 Cloudy with Light Rain 74 23.3 67 19.4 79 79 NNW 7 11 29.91 1013 10 16 0.01 0.25
2:52 pm 14:52 Cloudy with Haze 74 23.3 69 20.6 85 85 NE 9 15 29.91 1013 6 10 0.01 0.25
3:52 pm 15:52 Cloudy 73 22.8 66 18.9 79 79 E 10 17 29.90 1013 10 16 0.00 0.00
4:04 pm 16:04 Cloudy with Nearby Thunderstorms 74 23.3 66 18.9 76 76 ESE 6 9 29.88 1012 10 16 0.00 0.00
4:28 pm 16:28 Cloudy with Thunderstorms 73 22.8 68 20 84 84 E 9 15 29.91 1013 6 10 0.01 0.25
4:52 pm 16:52 Cloudy with Thunderstorms 67 19.4 63 17.2 87 87 N 16 26 29.91 1013 6 10 0.04 1.02
5:08 pm 17:08 Cloudy with Light Rain 68 20 63 17.2 84 84 ENE 9 15 29.88 1012 10 16 0.01 0.25
5:52 pm 17:52 Cloudy with Light Rain 70 21.1 66 18.9 87 87 NNE 8 13 29.88 1012 10 16 0.03 0.76
6:52 pm 18:52 Cloudy 70 21.1 65 18.3 84 84 NE 5 7 29.88 1012 10 16 0.00 0.03
7:52 pm 19:52 Cloudy 70 21.1 65 18.3 84 84 Calm 29.88 1012 9 14 0.00 0.00
8:52 pm 20:52 Cloudy 68 20 66 18.9 93 93 NNW 6 9 29.90 1013 7 11 0.00 0.00
9:52 pm 21:52 Partly Cloudy with Mist and Fog 68 20 66 18.9 93 93 NNE 5 7 29.91 1013 6 10 0.00 0.00
10:52 pm 22:52 Mostly Clear with Mist and Fog 68 20 65 18.3 90 90 N 6 9 29.92 1013 6 10 0.00 0.00
11:52 pm 23:52 Mostly Clear with Mist and Fog 68 20 65 18.3 90 90 N 3 6 29.92 1013 6 10 0.00 0.00

Powered by AerisWeather